Regional Weather Roundup
Issued by NWS

Home | Current Version | Previous Version | Graphics & Text | Print | Product List | Glossary On
Versions: 1 2 3 4 5 6 7 8 9 10 11 12 13 14 15 16 17 18 19 20 21 22 23 24 25 26 27 28 29 30 31 32 33 34 35 36 37 38 39 40 41 42 43 44 45 46 47 48 49 50
000
ASUS45 KABQ 141801
RWRNM
NEW MEXICO REGIONAL WEATHER ROUNDUP
NATIONAL WEATHER SERVICE ALBUQUERQUE NM
1100 AM MST THU DEC 14 2017

NOTE: "FAIR" MEANS FEW OR NO CLOUDS BELOW 12,000 FEET AGL WITH NO
       SIGNIFICANT WEATHER OR OBSTRUCTIONS TO VISION.

      THIS PRODUCT IS RELEASED AS TWO VERSIONS.  ONE VERSION NEAR
      THE TOP OF THE HOUR CONTAINING PRELIMINARY DATA FROM ALBUQUERQUE
      AND OTHER STATIONS.  A FINAL VERSION WITH ADDITIONAL DATA IS
      ISSUED ABOUT 10 MINUTES AFTER THE HOUR.

NMZ501-503-504-510>518-141900-
NORTHWEST PLATEAU/NORTHCENTRAL MOUNTAINS

CITY           SKY/WX    TMP DP  RH WIND       PRES   REMARKS
FARMINGTON     FAIR      40  17  39 E6        30.14R
6HR MIN TEMP:  20; 6HR MAX TEMP:  40;

LOS ALAMOS     CLOUDY    36  11  36 S9G17     30.18R WCI  29
SANTA FE       FAIR      44  14  29 SE20G25   30.15R
6HR MIN TEMP:  30; 6HR MAX TEMP:  44;

TAOS           CLOUDY    38  15  39 N16       30.19S WCI  29
ANGEL FIRE     CLOUDY    30  13  48 E3        30.19S

$$
NMZ402-403-502-505>509-141900-
WESTCENTRAL MOUNTAINS/SOUTHWEST MOUNTAINS

CITY           SKY/WX    TMP DP  RH WIND       PRES   REMARKS
GALLUP         CLOUDY    37   8  30 NE3       30.15R
6HR MIN TEMP:  11; 6HR MAX TEMP:  37;

GRANTS         CLOUDY    41  22  47 N16       30.16S
SILVER CITY    FAIR      57  20  23 NW8G16    30.04S

$$
NMZ407-409-411-412-141900-
SOUTHERN DESERTS

CITY           SKY/WX    TMP DP  RH WIND       PRES   REMARKS
DEMING         FAIR      58  22  24 CALM      30.04S
6HR MIN TEMP:  27; 6HR MAX TEMP:  58;

LAS CRUCES     FAIR      53  26  35 E7        30.06S
ALAMOGORDO     FAIR      50  23  34 W3        30.07F
T OR C         FAIR      49  10  20 NE9       30.06S
6HR MIN TEMP:  28; 6HR MAX TEMP:  49;


$$
NMZ519>523-141900-
CENTRAL VALLEYS/CENTRAL HIGHLANDS

CITY           SKY/WX    TMP DP  RH WIND       PRES   REMARKS
ALBUQUERQUE    PTSUNNY   43  13  29 E29G38    30.15R
6HR MIN TEMP:  26; 6HR MAX TEMP:  43;

DOUBLE EAGLE   PTSUNNY   45  12  26 E16G22    30.16R
MORIARTY ARPT  FAIR      40  15  36 E16G23    30.21S WCI  31
6HR MIN TEMP:  10; 6HR MAX TEMP:  40;

CLINES CORNERS FAIR      33  14  45 E23G35    30.18S WCI  21
6HR MIN TEMP:  25; 6HR MAX TEMP:  33;

BELEN          FAIR      44   7  22 N9        30.14S THUNDER
6HR MIN TEMP:  20; 6HR MAX TEMP:  44;

SOCORRO        FAIR      47   9  21 N10G17    30.12S
6HR MIN TEMP:  22; 6HR MAX TEMP:  47; 6HR PCP:  0.03;


$$
NMZ524>526-539-540-141900-
SOUTHCENTRAL MOUNTAINS

CITY           SKY/WX    TMP DP  RH WIND       PRES   REMARKS
RUIDOSO        FAIR      37  10  32 SE15G21   30.17F WCI  28

$$
NMZ527>531-141900-
NORTHEAST HIGHLANDS/NORTHEAST PLAINS

CITY           SKY/WX    TMP DP  RH WIND       PRES   REMARKS
LAS VEGAS      FAIR      34  15  46 NE9       30.22S WCI  27
6HR MIN TEMP:  20; 6HR MAX TEMP:  34;

RATON          PTSUNNY   36  18  48 N9        30.20F WCI  29
6HR MIN TEMP:  28; 6HR MAX TEMP:  38;

CLAYTON        PTSUNNY   36  24  62 N18       30.21F WCI  26
6HR MIN TEMP:  27; 6HR MAX TEMP:  36;


$$
NMZ532>537-141900-
EASTCENTRAL PLAINS

CITY           SKY/WX    TMP DP  RH WIND       PRES   REMARKS
SANTA ROSA     FAIR      41  19  41 NE20      30.23F
TUCUMCARI      FAIR      45  18  34 NE15      30.22F
6HR MIN TEMP:  26; 6HR MAX TEMP:  46;

CANNON AFB     NOT AVBL
CLOVIS AIRPORT FAIR      43  21  41 NE23      30.21F

$$
NMZ028-029-538-141900-
SOUTHEAST PLAINS

CITY           SKY/WX    TMP DP  RH WIND       PRES   REMARKS
ROSWELL        FAIR      48  17  29 N12       30.19S
6HR MIN TEMP:  25; 6HR MAX TEMP:  48;

ARTESIA        FAIR      48  18  29 NE10      30.18S
CARLSBAD       FAIR      49  20  31 N10       30.15S
6HR MIN TEMP:  32; 6HR MAX TEMP:  49;

HOBBS          SUNNY     50  19  29 NE20      30.15S


$$



USA.gov is the U.S. government's official web portal to all federal, state and local government web resources and services.